Regional Weather Roundup
Issued by NWS

Home | Current Version | Previous Version | Graphics & Text | Print | Product List | Glossary On
Versions: 1 2 3 4 5 6 7 8 9 10 11 12 13 14 15 16 17 18 19 20 21 22 23 24 25 26 27 28 29 30 31 32 33 34 35 36 37 38 39 40 41 42 43 44 45 46 47 48 49 50
000
ASUS43 KBIS 010002
RWRND

NORTH DAKOTA REGIONAL WEATHER ROUNDUP
NATIONAL WEATHER SERVICE BISMARCK ND
700 PM CDT MON AUG 31 2015

NOTE: "FAIR" INDICATES FEW OR NO CLOUDS BELOW 12,000 FEET WITH NO
SIGNIFICANT WEATHER AND/OR OBSTRUCTIONS TO VISIBILITY.


NDZ001>003-009>011-017-010100-
NORTHWEST NORTH DAKOTA

CITY           SKY/WX    TMP DP  RH WIND       PRES   REMARKS
WILLISTON      SUNNY     76  34  21 W10       29.84S
6HR MIN TEMP:  74; 6HR MAX TEMP:  80;

MINOT          SUNNY     76  37  24 W12       29.83R
MINOT AFB      SUNNY     79  40  24 W10       29.81S
$$

NDZ018>021-031>035-040>046-010100-
SOUTHWEST NORTH DAKOTA

CITY           SKY/WX    TMP DP  RH WIND       PRES   REMARKS
BISMARCK       MOSUNNY   81  43  26 W8        29.87S
6HR MIN TEMP:  76; 6HR MAX TEMP:  84;

DICKINSON      SUNNY     77  40  26 W12       29.89R
GARRISON         N/A     76  43  30 W12       29.87R
6HR MIN TEMP:  73; 6HR MAX TEMP:  78;

HETTINGER ARPT SUNNY     79  41  25 CALM      29.92S
$$

NDZ004>008-012>016-024-026-027-054-010100-
NORTHEAST NORTH DAKOTA

CITY           SKY/WX    TMP DP  RH WIND       PRES   REMARKS
GRAND FORKS    CLOUDY    75  58  55 SW7       29.81R
GRND FRKS AFB  CLOUDY    73  61  65 SW5       29.82R
DEVILS LAKE    MOSUNNY   77  43  29 W12       29.82R
$$

NDZ022-023-025-028>030-036>039-047>053-010100-
SOUTHEAST NORTH DAKOTA

CITY           SKY/WX    TMP DP  RH WIND       PRES   REMARKS
FARGO          CLOUDY    81  65  58 S3        29.82S
6HR MIN TEMP:  79; 6HR MAX TEMP:  82;

JAMESTOWN      CLOUDY    74  55  51 SW3       29.86S
$$



USA.gov is the U.S. government's official web portal to all federal, state and local government web resources and services.